Wind_Speed
9 7 6 5 4 6 7 9 12 15 18 21 23 24 25 25 27 28 29 29 29 29 28 28 28 27 27 27 27 27 26 27 28 28 27 27 28 27
9 8 7 5 5 5 7 9 11 13 16 19 21 22 23 23 24 26 27 27 28 29 29 29 28 28 28 28 29 29 28 28 28 28 28 28 27 27
10 9 7 6 5 6 7 9 11 12 14 17 20 21 22 23 23 24 27 27 28 28 27 28 29 29 29 28 28 28 28 28 28 28 29 30 29 29
11 10 8 8 7 6 7 9 10 12 14 17 18 20 22 23 23 24 26 26 27 28 28 28 29 29 29 29 29 29 30 30 30 30 30 30 31 31
11 10 9 9 8 8 8 9 11 13 14 16 17 19 20 21 23 24 25 26 27 28 28 28 29 29 29 29 29 30 30 31 31 31 31 32 32 33
13 12 11 10 9 9 9 10 12 13 15 16 18 19 20 21 22 23 24 26 27 28 28 28 28 28 29 29 29 30 31 32 32 33 33 33 34 35
15 13 12 11 11 11 11 11 12 13 15 16 18 19 20 21 22 23 24 24 25 26 27 28 28 28 28 29 29 29 30 31 32 33 34 35 36 36
17 16 15 14 13 13 13 13 13 14 15 16 18 19 20 21 22 23 24 25 25 26 27 27 28 28 28 28 29 30 31 31 32 32 33 35 36 37
20 19 18 16 16 15 14 14 14 15 16 17 18 19 20 20 22 23 24 25 26 26 27 27 27 28 29 29 29 30 31 31 32 33 34 34 35 36
23 22 21 20 19 17 16 16 16 16 16 17 18 19 20 20 21 22 24 24 25 26 26 27 27 28 28 28 29 29 29 30 30 31 32 33 34 35
26 24 23 23 22 21 20 19 18 18 18 18 19 19 19 20 21 21 22 23 23 25 25 26 26 27 27 28 27 28 29 29 29 30 30 31 32 33
29 27 26 25 25 24 22 21 20 20 20 19 19 19 19 19 20 21 21 22 23 24 24 25 26 26 27 27 27 27 28 28 29 29 30 30 31 32
32 31 29 28 27 26 25 24 23 23 22 21 21 20 21 20 20 20 21 22 22 23 24 24 25 25 26 26 26 26 26 27 28 29 30 31 31 32
35 34 33 31 30 29 28 27 26 26 24 23 23 22 22 22 21 21 21 21 22 23 23 24 24 25 25 25 26 26 26 27 27 28 30 31 32 32
39 37 36 34 34 32 31 30 29 28 27 26 25 24 24 23 23 23 23 23 22 22 23 23 24 24 25 25 25 25 26 26 27 27 28 30 31 32
42 40 39 38 36 35 34 32 31 31 30 29 28 27 26 25 24 23 23 23 23 23 23 24 24 25 25 26 26 26 26 26 27 28 29 30 30 31
45 44 42 41 39 38 36 35 33 32 31 31 30 29 29 28 27 26 25 25 24 24 24 24 25 25 25 25 25 26 26 27 28 28 29 30 31 31
48 46 45 43 42 40 39 37 36 34 33 32 32 31 30 30 29 28 28 27 27 26 26 25 25 25 26 26 26 26 27 28 28 29 30 31 32 33
51 49 47 45 44 43 41 40 38 37 35 35 33 32 32 31 30 29 29 29 28 28 27 27 27 27 27 26 27 27 27 28 29 29 31 32 32 33
53 51 49 48 46 45 44 42 41 39 38 36 35 34 33 32 31 31 30 29 29 29 29 28 28 28 27 28 28 28 28 29 30 31 32 33 33 34
54 53 52 50 48 47 45 44 43 41 40 38 37 36 35 34 33 32 31 31 30 29 29 29 29 29 29 29 29 29 30 30 31 32 32 33 34 34
55 54 53 52 50 48 47 46 45 43 42 40 38 37 36 35 34 33 32 32 31 30 30 30 30 30 29 29 29 30 31 31 32 32 33 33 34 34
55 54 53 52 50 49 48 47 46 45 43 41 39 38 37 36 34 34 33 32 31 31 31 30 30 30 30 30 30 31 31 32 32 33 33 34 35 35
Wind_Direction
343 339 325 301 275 240 224 215 210 210 210 212 214 217 219 219 220 222 225 225 226 228 230 232 234 235 236 236 238 238 240 243 244 246 246 247 249 250
337 334 324 310 283 247 230 220 219 219 217 216 216 217 217 219 221 223 225 225 228 230 232 234 236 238 239 240 241 242 243 245 246 247 247 249 251 251
330 327 321 311 289 260 242 230 224 220 217 217 217 219 219 221 222 225 226 227 228 231 232 234 236 239 241 242 242 244 245 246 247 249 249 250 252 254
322 320 313 304 294 274 254 239 230 225 222 220 220 221 222 225 226 229 228 229 231 232 235 236 238 240 242 242 244 245 246 248 249 251 252 253 254 256
313 312 310 301 292 280 260 244 237 233 230 227 225 224 226 228 230 231 232 232 232 234 237 239 240 241 242 243 245 247 248 249 251 253 255 255 256 257
303 301 300 296 288 279 265 252 243 238 234 232 230 229 231 232 233 235 236 235 236 238 240 241 241 242 243 244 246 249 250 251 253 255 257 258 259 259
293 291 291 290 284 276 268 258 249 242 237 234 234 234 233 234 235 236 236 237 237 238 239 241 242 245 246 247 248 251 253 254 257 258 258 258 259 259
286 284 283 281 278 273 267 260 253 245 240 239 238 237 236 235 236 238 238 237 238 238 240 241 244 247 249 248 250 252 255 258 260 260 260 260 261 260
279 278 277 276 272 269 264 259 255 248 244 242 242 240 240 239 240 240 239 238 239 240 241 243 246 249 251 252 252 255 256 258 260 261 262 263 262 262
272 272 272 271 269 265 262 259 255 252 249 247 245 244 244 244 242 242 241 242 242 243 243 245 247 249 250 253 255 256 258 260 263 263 262 262 263 264
268 267 266 267 265 263 260 258 255 252 252 251 251 249 246 244 244 243 243 242 243 244 245 246 248 251 253 254 256 258 259 262 264 264 264 264 264 265
265 263 262 263 262 261 259 257 255 252 252 252 251 249 247 247 247 247 247 246 246 245 246 248 250 252 254 256 259 260 262 263 264 264 264 265 267 267
262 260 259 259 259 258 257 255 254 253 251 252 252 251 249 248 248 248 249 247 247 247 248 249 252 253 256 259 261 262 263 264 266 266 266 267 269 270
259 258 256 255 255 255 254 253 252 252 251 251 251 251 250 249 248 249 249 248 249 250 251 252 254 256 259 261 264 266 266 266 267 269 269 269 270 271
256 255 254 253 252 252 252 252 252 251 251 250 250 250 249 249 250 251 251 251 253 253 255 255 256 257 260 263 265 267 267 268 269 271 271 272 273 273
254 253 252 250 250 250 250 250 251 251 251 250 250 249 249 248 250 250 251 252 254 254 256 258 259 260 262 264 265 267 269 270 271 272 273 275 275 276
252 251 251 249 248 248 249 249 249 250 250 250 250 250 250 250 250 251 252 253 254 255 256 258 260 262 264 265 267 268 270 271 273 274 275 276 277 277
249 249 249 248 247 246 247 247 247 248 248 249 249 249 250 250 251 251 252 253 255 256 258 260 262 263 264 266 268 270 272 273 275 276 278 278 279 279
246 247 247 247 246 245 245 245 246 246 246 247 248 249 249 249 250 251 252 253 255 256 258 260 262 264 266 268 270 272 274 275 276 278 280 282 283 283
245 245 245 245 245 244 243 244 244 245 245 246 247 247 248 249 249 250 252 254 255 257 258 260 263 265 267 269 271 273 275 277 279 281 282 283 284 284
243 243 243 243 244 243 242 242 243 244 244 245 245 246 247 248 249 250 252 255 256 258 260 261 264 266 269 270 271 273 276 278 280 282 283 284 284 285
242 241 241 241 242 242 241 241 242 242 244 244 244 244 245 247 248 250 252 254 255 257 260 262 264 266 269 270 272 274 277 279 281 282 284 285 286 287
240 240 239 239 239 239 240 240 241 241 243 243 242 242 244 246 247 249 251 253 255 257 259 262 264 267 268 271 273 276 278 281 282 283 285 286 287 288
Height
5796 5794 5793 5792 5791 5790 5791 5792 5794 5795 5797 5800 5803 5806 5810 5813 5816 5820 5823 5827 5830 5833 5837 5839 5842 5845 5847 5850 5852 5854 5856 5858 5860 5862 5864 5865 5867 5869
5796 5794 5793 5791 5790 5790 5790 5790 5792 5793 5795 5797 5800 5803 5806 5809 5812 5815 5819 5822 5825 5828 5831 5834 5836 5839 5841 5844 5846 5848 5850 5852 5854 5856 5858 5859 5861 5862
5795 5793 5792 5791 5789 5789 5789 5789 5790 5791 5793 5795 5797 5800 5803 5806 5808 5811 5814 5817 5820 5823 5826 5828 5831 5833 5835 5838 5840 5842 5844 5846 5848 5850 5851 5853 5855 5856
5794 5792 5791 5789 5788 5788 5787 5788 5788 5789 5790 5792 5794 5796 5799 5802 5804 5807 5809 5812 5815 5818 5820 5823 5825 5827 5829 5831 5834 5836 5838 5840 5841 5843 5844 5846 5848 5849
5792 5791 5789 5788 5787 5786 5785 5785 5786 5786 5787 5789 5790 5793 5795 5797 5800 5802 5804 5807 5809 5812 5814 5816 5819 5821 5823 5825 5827 5829 5831 5833 5834 5836 5837 5838 5840 5841
5790 5788 5787 5786 5785 5784 5783 5783 5783 5783 5784 5785 5787 5789 5791 5792 5795 5797 5799 5801 5803 5806 5808 5810 5812 5814 5816 5818 5820 5822 5823 5825 5826 5828 5829 5830 5831 5833
5787 5786 5784 5783 5782 5781 5780 5780 5779 5780 5780 5781 5783 5784 5786 5788 5789 5791 5793 5795 5797 5799 5801 5804 5806 5808 5809 5811 5813 5814 5816 5817 5818 5819 5820 5821 5822 5823
5783 5782 5781 5780 5778 5777 5776 5776 5776 5776 5777 5777 5778 5780 5781 5782 5784 5785 5787 5789 5791 5793 5795 5797 5799 5801 5802 5804 5805 5807 5808 5809 5810 5810 5811 5812 5813 5814
5778 5777 5776 5775 5774 5773 5772 5772 5772 5772 5773 5773 5774 5774 5775 5777 5778 5779 5780 5782 5784 5786 5788 5790 5792 5793 5795 5796 5797 5798 5800 5800 5801 5801 5802 5803 5803 5804
5772 5771 5771 5770 5769 5769 5768 5768 5767 5768 5768 5768 5769 5769 5770 5771 5772 5773 5774 5775 5777 5779 5781 5783 5784 5786 5787 5788 5789 5791 5791 5792 5792 5792 5793 5793 5794 5794
5764 5764 5764 5764 5764 5763 5763 5762 5762 5763 5763 5763 5763 5764 5764 5765 5766 5767 5768 5769 5770 5772 5774 5776 5777 5778 5780 5781 5782 5782 5783 5783 5784 5784 5784 5784 5784 5785
5756 5756 5756 5756 5756 5756 5756 5756 5756 5757 5757 5758 5758 5758 5759 5759 5760 5761 5762 5763 5764 5766 5767 5769 5770 5771 5772 5773 5774 5774 5775 5775 5775 5775 5775 5775 5775 5775
5746 5746 5747 5748 5748 5748 5749 5749 5750 5750 5751 5751 5752 5752 5753 5753 5754 5755 5756 5757 5758 5759 5760 5761 5763 5764 5765 5766 5766 5766 5766 5767 5766 5766 5766 5767 5766 5766
5735 5736 5737 5738 5738 5739 5740 5742 5742 5742 5743 5744 5745 5746 5746 5747 5748 5749 5749 5750 5751 5752 5753 5754 5755 5756 5757 5757 5758 5758 5758 5758 5758 5758 5758 5758 5757 5757
5722 5724 5725 5727 5728 5729 5731 5732 5733 5734 5735 5736 5737 5738 5739 5740 5741 5742 5743 5743 5744 5745 5746 5747 5748 5748 5749 5750 5750 5750 5750 5750 5749 5749 5749 5749 5748 5748
5708 5710 5712 5714 5716 5718 5720 5722 5723 5725 5727 5728 5729 5730 5731 5732 5733 5734 5735 5736 5737 5738 5739 5739 5740 5741 5741 5741 5741 5741 5741 5741 5741 5741 5740 5740 5739 5738
5692 5695 5698 5701 5704 5706 5709 5711 5713 5715 5717 5718 5720 5721 5723 5724 5725 5727 5728 5729 5730 5731 5731 5732 5732 5733 5733 5733 5733 5733 5733 5733 5733 5732 5732 5731 5730 5729
5676 5680 5684 5688 5691 5694 5697 5700 5702 5704 5707 5708 5710 5712 5714 5715 5717 5718 5719 5720 5722 5723 5724 5724 5725 5725 5725 5725 5725 5725 5725 5724 5724 5723 5722 5721 5720 5719
5658 5664 5669 5673 5677 5681 5684 5687 5690 5693 5695 5698 5700 5702 5704 5706 5708 5709 5710 5712 5713 5714 5715 5716 5716 5717 5717 5717 5717 5717 5716 5716 5715 5714 5713 5712 5711 5709
5642 5648 5653 5658 5662 5666 5671 5674 5678 5681 5684 5687 5689 5691 5694 5696 5698 5700 5701 5703 5704 5705 5706 5707 5707 5708 5708 5708 5708 5708 5707 5706 5706 5705 5704 5702 5701 5699
5624 5630 5636 5642 5647 5652 5656 5661 5665 5668 5671 5675 5678 5680 5683 5686 5688 5690 5692 5693 5694 5696 5697 5698 5698 5699 5699 5699 5699 5698 5698 5697 5696 5695 5694 5692 5691 5689
5606 5612 5619 5625 5631 5636 5641 5646 5651 5655 5659 5662 5666 5669 5672 5675 5677 5680 5682 5683 5685 5686 5687 5688 5689 5689 5689 5689 5689 5689 5688 5687 5686 5684 5683 5682 5680 5678
5588 5594 5601 5608 5614 5620 5626 5631 5637 5642 5646 5650 5654 5657 5661 5664 5666 5669 5671 5673 5675 5676 5677 5678 5679 5679 5680 5680 5679 5679 5678 5677 5676 5675 5673 5671 5669 5667